Time,TemperatureF,DewpointF,PressureIn,WindDirection,WindDirectionDegrees,WindSpeedMPH,WindSpeedGustMPH,Humidity,HourlyPrecipIn,Conditions,Clouds,dailyrainin,SoftwareType,DateUTC
2013-03-10 00:01:00,37.0,35.0,29.82,East,81,0.0,-999.0,91,-99.99,,,-99.99,,2013-03-10 06:01:00,
2013-03-10 00:11:00,37.0,35.0,29.82,East,81,0.0,-999.0,91,-99.99,,,-99.99,,2013-03-10 06:11:00,
2013-03-10 00:22:00,37.0,35.0,29.83,East,81,0.0,-999.0,93,-99.99,,,-99.99,,2013-03-10 06:22:00,
2013-03-10 00:32:00,37.0,35.0,29.82,East,81,1.0,-999.0,94,-99.99,,,-99.99,,2013-03-10 06:32:00,
2013-03-10 00:42:00,37.0,35.0,29.82,East,81,1.0,-999.0,94,-99.99,,,-99.99,,2013-03-10 06:42:00,
2013-03-10 00:51:00,37.0,35.0,29.82,East,81,1.0,-999.0,94,-99.99,,,-99.99,,2013-03-10 06:51:00,
2013-03-10 01:02:00,38.0,37.0,29.84,East,81,0.0,-999.0,95,-99.99,,,-99.99,,2013-03-10 07:02:00,
2013-03-10 01:11:00,38.0,37.0,29.84,East,81,0.0,-999.0,95,-99.99,,,-99.99,,2013-03-10 07:11:00,
2013-03-10 01:21:00,39.0,38.0,29.83,SSE,147,0.0,-999.0,96,-99.99,,,-99.99,,2013-03-10 07:21:00,
2013-03-10 01:31:00,40.0,39.0,29.82,SE,144,0.0,-999.0,96,-99.99,,,-99.99,,2013-03-10 07:31:00,
2013-03-10 01:42:00,40.0,39.0,29.82,SE,140,0.0,-999.0,96,-99.99,,,-99.99,,2013-03-10 07:42:00,
2013-03-10 01:52:00,40.0,39.0,29.82,SE,140,0.0,-999.0,96,-99.99,,,-99.99,,2013-03-10 07:52:00,
2013-03-10 03:01:00,42.0,41.0,29.79,ESE,114,1.0,-999.0,97,-99.99,,,-99.99,,2013-03-10 08:01:00,
2013-03-10 03:11:00,42.0,41.0,29.79,ESE,114,1.0,-999.0,97,-99.99,,,-99.99,,2013-03-10 08:11:00,
2013-03-10 03:21:00,42.0,41.0,29.78,ESE,112,1.0,-999.0,97,-99.99,,,-99.99,,2013-03-10 08:21:00,
2013-03-10 03:31:00,41.0,40.0,29.77,East,95,2.0,-999.0,96,-99.99,,,-99.99,,2013-03-10 08:31:00,
2013-03-10 03:42:00,41.0,40.0,29.77,East,95,2.0,-999.0,96,-99.99,,,-99.99,,2013-03-10 08:42:00,
2013-03-10 03:51:00,41.0,40.0,29.78,East,98,0.0,-999.0,96,-99.99,,,-99.99,,2013-03-10 08:51:00,
2013-03-10 04:01:00,41.0,40.0,29.77,East,99,0.0,-999.0,96,-99.99,,,-99.99,,2013-03-10 09:01:00,
2013-03-10 04:11:00,41.0,40.0,29.77,East,99,0.0,-999.0,96,-99.99,,,-99.99,,2013-03-10 09:11:00,
2013-03-10 04:21:00,41.0,40.0,29.76,East,99,0.0,-999.0,96,-99.99,,,-99.99,,2013-03-10 09:21:00,
2013-03-10 04:31:00,41.0,40.0,29.76,East,99,0.0,-999.0,96,-99.99,,,-99.99,,2013-03-10 09:31:00,
2013-03-10 04:41:00,41.0,40.0,29.76,East,99,0.0,-999.0,96,-99.99,,,-99.99,,2013-03-10 09:41:00,
2013-03-10 04:51:00,40.0,39.0,29.78,East,99,0.0,-999.0,97,-99.99,,,-99.99,,2013-03-10 09:51:00,
2013-03-10 05:01:00,40.0,39.0,29.78,East,99,0.0,-999.0,97,-99.99,,,-99.99,,2013-03-10 10:01:00,
2013-03-10 05:11:00,40.0,39.0,29.78,East,99,0.0,-999.0,97,-99.99,,,-99.99,,2013-03-10 10:11:00,
2013-03-10 05:21:00,41.0,40.0,29.78,ESE,109,1.0,-999.0,97,-99.99,,,-99.99,,2013-03-10 10:21:00,
2013-03-10 05:32:00,41.0,40.0,29.77,ESE,107,0.0,-999.0,97,-99.99,,,-99.99,,2013-03-10 10:32:00,
2013-03-10 05:42:00,40.0,39.0,29.76,ESE,107,1.0,-999.0,97,-99.99,,,-99.99,,2013-03-10 10:42:00,
2013-03-10 05:52:00,40.0,39.0,29.76,ESE,107,1.0,-999.0,97,-99.99,,,-99.99,,2013-03-10 10:52:00,
2013-03-10 06:01:00,40.0,39.0,29.75,ESE,108,0.0,-999.0,97,-99.99,,,-99.99,,2013-03-10 11:01:00,
2013-03-10 06:12:00,40.0,39.0,29.74,ESE,105,0.0,-999.0,97,-99.99,,,-99.99,,2013-03-10 11:12:00,
2013-03-10 06:21:00,40.0,39.0,29.74,ESE,105,0.0,-999.0,97,-99.99,,,-99.99,,2013-03-10 11:21:00,
2013-03-10 06:32:00,39.0,38.0,29.73,East,91,2.0,-999.0,97,-99.99,,,-99.99,,2013-03-10 11:32:00,
2013-03-10 06:42:00,39.0,38.0,29.73,East,91,2.0,-999.0,97,-99.99,,,-99.99,,2013-03-10 11:42:00,
2013-03-10 06:52:00,39.0,38.0,29.72,East,88,2.0,-999.0,97,-99.99,,,-99.99,,2013-03-10 11:52:00,
2013-03-10 07:01:00,39.0,38.0,29.72,East,90,1.0,-999.0,97,-99.99,,,-99.99,,2013-03-10 12:01:00,
2013-03-10 07:11:00,39.0,38.0,29.72,East,90,1.0,-999.0,97,-99.99,,,-99.99,,2013-03-10 12:11:00,
2013-03-10 07:21:00,39.0,38.0,29.72,East,92,0.0,-999.0,98,-99.99,,,-99.99,,2013-03-10 12:21:00,
2013-03-10 07:31:00,40.0,39.0,29.72,East,92,0.0,-999.0,97,-99.99,,,-99.99,,2013-03-10 12:31:00,
2013-03-10 07:42:00,40.0,39.0,29.72,East,92,0.0,-999.0,97,-99.99,,,-99.99,,2013-03-10 12:42:00,
2013-03-10 07:51:00,40.0,39.0,29.72,East,98,0.0,-999.0,98,-99.99,,,-99.99,,2013-03-10 12:51:00,
2013-03-10 08:01:00,40.0,39.0,29.70,East,96,1.0,-999.0,98,-99.99,,,-99.99,,2013-03-10 13:01:00,
2013-03-10 08:11:00,40.0,39.0,29.70,East,96,1.0,-999.0,98,-99.99,,,-99.99,,2013-03-10 13:11:00,
2013-03-10 08:21:00,40.0,39.0,29.72,East,96,0.0,-999.0,98,-99.99,,,-99.99,,2013-03-10 13:21:00,
2013-03-10 08:31:00,41.0,40.0,29.74,East,96,0.0,-999.0,98,-99.99,,,-99.99,,2013-03-10 13:31:00,
2013-03-10 08:41:00,41.0,40.0,29.74,East,96,0.0,-999.0,98,-99.99,,,-99.99,,2013-03-10 13:41:00,
2013-03-10 08:52:00,41.0,40.0,29.76,East,96,1.0,-999.0,98,-99.99,,,-99.99,,2013-03-10 13:52:00,
2013-03-10 09:01:00,40.0,39.0,29.76,East,96,0.0,-999.0,98,-99.99,,,-99.99,,2013-03-10 14:01:00,
2013-03-10 09:11:00,40.0,39.0,29.76,East,96,0.0,-999.0,98,-99.99,,,-99.99,,2013-03-10 14:11:00,
2013-03-10 09:21:00,43.0,42.0,29.75,SSE,147,2.0,-999.0,98,-99.99,,,-99.99,,2013-03-10 14:21:00,
2013-03-10 09:32:00,43.0,42.0,29.75,SSE,164,2.0,-999.0,98,-99.99,,,-99.99,,2013-03-10 14:32:00,
2013-03-10 09:41:00,43.0,42.0,29.75,SSE,164,2.0,-999.0,98,-99.99,,,-99.99,,2013-03-10 14:41:00,
2013-03-10 09:51:00,44.0,44.0,29.75,South,172,3.0,-999.0,99,-99.99,,,-99.99,,2013-03-10 14:51:00,
2013-03-10 10:01:00,43.0,42.0,29.74,SSE,158,1.0,-999.0,98,-99.99,,,-99.99,,2013-03-10 15:01:00,
2013-03-10 10:11:00,43.0,42.0,29.74,SSE,158,1.0,-999.0,98,-99.99,,,-99.99,,2013-03-10 15:11:00,
2013-03-10 10:21:00,43.0,42.0,29.74,SE,139,0.0,-999.0,98,-99.99,,,-99.99,,2013-03-10 15:21:00,
2013-03-10 10:32:00,44.0,43.0,29.75,SSE,162,1.0,-999.0,98,-99.99,,,-99.99,,2013-03-10 15:32:00,
2013-03-10 10:42:00,44.0,43.0,29.75,SSE,162,1.0,-999.0,98,-99.99,,,-99.99,,2013-03-10 15:42:00,
2013-03-10 10:51:00,44.0,43.0,29.75,SSE,154,1.0,-999.0,98,-99.99,,,-99.99,,2013-03-10 15:51:00,
2013-03-10 11:01:00,45.0,44.0,29.75,SSE,163,0.0,-999.0,98,-99.99,,,-99.99,,2013-03-10 16:01:00,
2013-03-10 11:12:00,45.0,44.0,29.75,SSE,163,0.0,-999.0,98,-99.99,,,-99.99,,2013-03-10 16:12:00,
2013-03-10 11:21:00,45.0,44.0,29.74,SSE,163,1.0,-999.0,98,-99.99,,,-99.99,,2013-03-10 16:21:00,
2013-03-10 11:32:00,45.0,44.0,29.72,SSE,155,0.0,-999.0,97,-99.99,,,-99.99,,2013-03-10 16:32:00,
2013-03-10 11:41:00,45.0,44.0,29.72,SSE,155,0.0,-999.0,97,-99.99,,,-99.99,,2013-03-10 16:41:00,
2013-03-10 11:51:00,45.0,44.0,29.69,SSE,150,0.0,-999.0,97,-99.99,,,-99.99,,2013-03-10 16:51:00,
2013-03-10 12:01:00,45.0,44.0,29.71,East,96,0.0,-999.0,97,-99.99,,,-99.99,,2013-03-10 17:01:00,
2013-03-10 12:11:00,45.0,44.0,29.71,East,96,0.0,-999.0,97,-99.99,,,-99.99,,2013-03-10 17:11:00,
2013-03-10 12:21:00,44.0,43.0,29.72,East,98,0.0,-999.0,96,-99.99,,,-99.99,,2013-03-10 17:21:00,
2013-03-10 12:31:00,45.0,44.0,29.72,East,98,0.0,-999.0,97,-99.99,,,-99.99,,2013-03-10 17:31:00,
2013-03-10 12:41:00,45.0,44.0,29.72,East,98,0.0,-999.0,97,-99.99,,,-99.99,,2013-03-10 17:41:00,
2013-03-10 12:51:00,44.0,43.0,29.71,East,98,0.0,-999.0,97,-99.99,,,-99.99,,2013-03-10 17:51:00,
2013-03-10 13:01:00,43.0,42.0,29.71,East,98,0.0,-999.0,97,-99.99,,,-99.99,,2013-03-10 18:01:00,
2013-03-10 13:11:00,43.0,42.0,29.71,East,98,0.0,-999.0,97,-99.99,,,-99.99,,2013-03-10 18:11:00,
2013-03-10 13:21:00,43.0,42.0,29.72,East,98,0.0,-999.0,97,-99.99,,,-99.99,,2013-03-10 18:21:00,
2013-03-10 13:32:00,44.0,43.0,29.72,ESE,113,0.0,-999.0,98,-99.99,,,-99.99,,2013-03-10 18:32:00,
2013-03-10 13:42:00,44.0,43.0,29.72,ESE,113,0.0,-999.0,98,-99.99,,,-99.99,,2013-03-10 18:42:00,
2013-03-10 13:52:00,44.0,43.0,29.70,SE,128,0.0,-999.0,98,-99.99,,,-99.99,,2013-03-10 18:52:00,
2013-03-10 14:01:00,44.0,43.0,29.70,ESE,123,0.0,-999.0,98,-99.99,,,-99.99,,2013-03-10 19:01:00,
2013-03-10 14:11:00,44.0,43.0,29.70,ESE,123,0.0,-999.0,98,-99.99,,,-99.99,,2013-03-10 19:11:00,
2013-03-10 14:21:00,45.0,44.0,29.70,ESE,123,0.0,-999.0,98,-99.99,,,-99.99,,2013-03-10 19:21:00,
2013-03-10 14:32:00,44.0,43.0,29.66,ESE,123,0.0,-999.0,98,-99.99,,,-99.99,,2013-03-10 19:32:00,
2013-03-10 14:42:00,44.0,43.0,29.66,ESE,123,0.0,-999.0,98,-99.99,,,-99.99,,2013-03-10 19:42:00,
2013-03-10 14:52:00,44.0,43.0,29.63,ESE,117,0.0,-999.0,98,-99.99,,,-99.99,,2013-03-10 19:52:00,
2013-03-10 15:02:00,44.0,43.0,29.63,ESE,117,0.0,-999.0,98,-99.99,,,-99.99,,2013-03-10 20:02:00,
2013-03-10 15:12:00,44.0,43.0,29.63,ESE,117,0.0,-999.0,98,-99.99,,,-99.99,,2013-03-10 20:12:00,
2013-03-10 15:22:00,43.0,42.0,29.63,ESE,115,1.0,-999.0,98,-99.99,,,-99.99,,2013-03-10 20:22:00,
2013-03-10 15:32:00,41.0,40.0,29.64,ESE,113,0.0,-999.0,97,-99.99,,,-99.99,,2013-03-10 20:32:00,
2013-03-10 15:42:00,41.0,40.0,29.64,ESE,113,0.0,-999.0,97,-99.99,,,-99.99,,2013-03-10 20:42:00,
2013-03-10 15:52:00,42.0,41.0,29.67,ESE,113,0.0,-999.0,98,-99.99,,,-99.99,,2013-03-10 20:52:00,
2013-03-10 16:02:00,43.0,42.0,29.66,ESE,113,0.0,-999.0,98,-99.99,,,-99.99,,2013-03-10 21:02:00,
2013-03-10 16:12:00,43.0,42.0,29.66,ESE,113,0.0,-999.0,98,-99.99,,,-99.99,,2013-03-10 21:12:00,
2013-03-10 16:22:00,44.0,43.0,29.66,ESE,113,0.0,-999.0,98,-99.99,,,-99.99,,2013-03-10 21:22:00,
2013-03-10 16:32:00,43.0,42.0,29.65,ESE,113,0.0,-999.0,98,-99.99,,,-99.99,,2013-03-10 21:32:00,
2013-03-10 16:42:00,43.0,42.0,29.65,ESE,113,0.0,-999.0,98,-99.99,,,-99.99,,2013-03-10 21:42:00,
2013-03-10 16:52:00,44.0,43.0,29.65,ESE,113,0.0,-999.0,98,-99.99,,,-99.99,,2013-03-10 21:52:00,
2013-03-10 17:02:00,44.0,43.0,29.61,ESE,113,0.0,-999.0,98,-99.99,,,-99.99,,2013-03-10 22:02:00,
2013-03-10 17:12:00,44.0,43.0,29.61,ESE,113,0.0,-999.0,98,-99.99,,,-99.99,,2013-03-10 22:12:00,
2013-03-10 17:22:00,43.0,42.0,29.62,ESE,113,0.0,-999.0,98,-99.99,,,-99.99,,2013-03-10 22:22:00,
2013-03-10 17:32:00,43.0,42.0,29.59,ESE,112,1.0,-999.0,98,-99.99,,,-99.99,,2013-03-10 22:32:00,
2013-03-10 17:43:00,43.0,42.0,29.59,ESE,112,1.0,-999.0,98,-99.99,,,-99.99,,2013-03-10 22:43:00,
2013-03-10 17:52:00,43.0,42.0,29.58,SE,136,2.0,-999.0,98,-99.99,,,-99.99,,2013-03-10 22:52:00,
2013-03-10 18:03:00,43.0,42.0,29.59,SE,136,0.0,-999.0,98,-99.99,,,-99.99,,2013-03-10 23:03:00,
2013-03-10 18:12:00,43.0,42.0,29.58,SE,136,0.0,-999.0,98,-99.99,,,-99.99,,2013-03-10 23:12:00,
2013-03-10 18:22:00,43.0,42.0,29.58,SE,136,0.0,-999.0,98,-99.99,,,-99.99,,2013-03-10 23:22:00,
2013-03-10 18:32:00,42.0,41.0,29.59,SE,136,0.0,-999.0,98,-99.99,,,-99.99,,2013-03-10 23:32:00,
2013-03-10 18:42:00,42.0,41.0,29.59,SE,136,0.0,-999.0,98,-99.99,,,-99.99,,2013-03-10 23:42:00,
2013-03-10 18:52:00,43.0,42.0,29.59,SE,136,0.0,-999.0,98,-99.99,,,-99.99,,2013-03-10 23:52:00,
2013-03-10 19:02:00,42.0,41.0,29.59,SE,136,0.0,-999.0,98,-99.99,,,-99.99,,2013-03-11 00:02:00,
2013-03-10 19:12:00,42.0,41.0,29.59,SE,136,0.0,-999.0,98,-99.99,,,-99.99,,2013-03-11 00:12:00,
2013-03-10 19:23:00,42.0,41.0,29.60,SE,136,0.0,-999.0,98,-99.99,,,-99.99,,2013-03-11 00:23:00,
2013-03-10 19:33:00,44.0,44.0,29.61,SE,136,0.0,-999.0,99,-99.99,,,-99.99,,2013-03-11 00:33:00,
2013-03-10 19:43:00,44.0,44.0,29.61,SE,136,0.0,-999.0,99,-99.99,,,-99.99,,2013-03-11 00:43:00,
2013-03-10 19:52:00,45.0,45.0,29.61,SSW,192,1.0,-999.0,99,-99.99,,,-99.99,,2013-03-11 00:52:00,
2013-03-10 20:03:00,44.0,44.0,29.61,SSW,206,1.0,-999.0,99,-99.99,,,-99.99,,2013-03-11 01:03:00,
2013-03-10 20:13:00,44.0,44.0,29.61,SSW,206,1.0,-999.0,99,-99.99,,,-99.99,,2013-03-11 01:13:00,
2013-03-10 20:23:00,44.0,44.0,29.61,SSW,205,2.0,-999.0,99,-99.99,,,-99.99,,2013-03-11 01:23:00,
2013-03-10 20:32:00,43.0,43.0,29.62,SSW,206,1.0,-999.0,99,-99.99,,,-99.99,,2013-03-11 01:32:00,
2013-03-10 20:42:00,43.0,43.0,29.62,SSW,206,1.0,-999.0,99,-99.99,,,-99.99,,2013-03-11 01:42:00,
2013-03-10 20:52:00,43.0,43.0,29.62,SSW,202,1.0,-999.0,99,-99.99,,,-99.99,,2013-03-11 01:52:00,
2013-03-10 21:02:00,44.0,44.0,29.62,SSW,205,0.0,-999.0,99,-99.99,,,-99.99,,2013-03-11 02:02:00,
2013-03-10 21:12:00,44.0,44.0,29.62,SSW,205,0.0,-999.0,99,-99.99,,,-99.99,,2013-03-11 02:12:00,
2013-03-10 21:22:00,44.0,44.0,29.62,SSW,204,0.0,-999.0,99,-99.99,,,-99.99,,2013-03-11 02:22:00,
2013-03-10 21:32:00,43.0,43.0,29.62,SSW,204,0.0,-999.0,99,-99.99,,,-99.99,,2013-03-11 02:32:00,
2013-03-10 21:42:00,43.0,43.0,29.62,SSW,204,0.0,-999.0,99,-99.99,,,-99.99,,2013-03-11 02:42:00,
2013-03-10 21:52:00,43.0,43.0,29.62,South,169,0.0,-999.0,99,-99.99,,,-99.99,,2013-03-11 02:52:00,
2013-03-10 22:02:00,44.0,44.0,29.62,SSE,155,0.0,-999.0,99,-99.99,,,-99.99,,2013-03-11 03:02:00,
2013-03-10 22:12:00,44.0,44.0,29.62,SSE,155,0.0,-999.0,99,-99.99,,,-99.99,,2013-03-11 03:12:00,
2013-03-10 22:22:00,44.0,44.0,29.63,SW,223,1.0,-999.0,99,-99.99,,,-99.99,,2013-03-11 03:22:00,
2013-03-10 22:32:00,44.0,44.0,29.64,South,186,1.0,-999.0,99,-99.99,,,-99.99,,2013-03-11 03:32:00,
2013-03-10 22:42:00,44.0,44.0,29.64,South,186,1.0,-999.0,99,-99.99,,,-99.99,,2013-03-11 03:42:00,
2013-03-10 22:52:00,44.0,44.0,29.63,SSE,160,0.0,-999.0,99,-99.99,,,-99.99,,2013-03-11 03:52:00,
2013-03-10 23:02:00,44.0,44.0,29.64,SSE,160,0.0,-999.0,99,-99.99,,,-99.99,,2013-03-11 04:02:00,
2013-03-10 23:12:00,44.0,44.0,29.64,SSE,160,0.0,-999.0,99,-99.99,,,-99.99,,2013-03-11 04:12:00,
2013-03-10 23:22:00,43.0,43.0,29.64,South,188,0.0,-999.0,99,-99.99,,,-99.99,,2013-03-11 04:22:00,
2013-03-10 23:32:00,43.0,43.0,29.64,SW,215,2.0,-999.0,99,-99.99,,,-99.99,,2013-03-11 04:32:00,
2013-03-10 23:42:00,43.0,43.0,29.64,SW,215,2.0,-999.0,99,-99.99,,,-99.99,,2013-03-11 04:42:00,
2013-03-10 23:52:00,43.0,43.0,29.64,SSW,209,3.0,-999.0,99,-99.99,,,-99.99,,2013-03-11 04:52:00,